1281830428117,110.186
1281830488117,110.107
1281830548117,110.309
1281830608117,110.137
1281830668117,110.274
1281830728117,109.966
1281830788117,110.281
1281830848117,110.341
1281830908117,110.160
1281830968117,110.209
1281831028117,110.148
1281831088117,110.046
1281831148117,110.144
1281831208117,110.367
1281831268117,110.269
1281831328117,110.212
1281831388117,110.266
1281831448117,110.444
1281831508117,110.511
1281831568117,110.104
1281831628117,110.174
1281831688117,110.327
1281831748117,110.399
1281831808117,110.551
1281831868117,110.469
1281831928117,110.303
1281831988117,110.243
1281832048117,110.335
1281832108117,110.357
1281832168117,110.140
1281832228117,110.561
1281832288117,110.235
1281832348117,110.419
1281832408117,110.259
1281832468117,110.304
1281832528117,110.314
1281832588117,110.402
1281832648117,110.332
1281832708117,110.284
1281832768117,110.573
1281832828117,110.336
1281832888117,110.346
1281832948117,110.268
1281833008117,110.058
1281833068117,110.519
1281833128117,110.413
1281833188117,110.322
1281833248117,110.457
1281833308117,110.569
1281833368117,110.125
1281833428117,110.329
1281833488117,110.384
1281833548117,110.411
1281833608117,110.316
1281833668117,110.411
1281833728117,110.499
1281833788117,110.303
1281833848117,110.528
1281833908117,110.520
1281833968117,110.450
1281834028126,110.465
1281834088126,110.517
1281834148126,110.428
1281834208126,110.778
1281834268126,110.835
1281834328126,110.604
1281834388126,110.840
1281834448126,110.651
1281834508126,110.601
1281834568126,110.956
1281834628126,110.814
1281834688126,110.939
1281834748126,110.782
1281834808126,110.480
1281834868126,110.793
1281834928126,110.858
1281834988126,110.673
1281835048126,110.850
1281835108126,110.690
1281835168126,110.673
1281835228126,110.956
1281835288126,110.614
1281835348126,110.671
1281835408126,110.718
1281835468126,110.734
1281835528126,110.766
1281835588126,110.775
1281835648126,110.715
1281835708126,110.711
1281835768126,110.849
1281835828126,110.742
1281835888126,110.927
1281835948126,110.691
1281836008126,110.697
1281836068126,110.479
1281836128126,110.815
1281836188126,110.544
1281836248126,111.054
1281836308126,110.608
1281836368126,110.685
1281836428126,110.724
1281836488126,110.514
1281836548126,110.740
1281836608126,110.817
1281836668126,110.704
1281836728126,110.793
1281836788126,110.811
1281836848126,110.677
1281836908126,110.987
1281836968126,110.981
1281837028126,110.720
1281837088126,110.613
1281837148126,110.619
1281837208126,110.860
1281837268126,111.048
1281837328126,110.961
1281837388126,110.725
1281837448126,110.870
1281837508126,110.934
1281837568126,110.799
1281837628135,110.788
1281837688135,110.812
1281837748135,110.965
1281837808135,110.965
1281837868135,110.927
1281837928135,110.740
1281837988135,110.931
1281838048135,110.861
1281838108135,110.761
1281838168135,110.930
1281838228135,110.994
1281838288136,111.029
1281838348136,111.015
1281838408136,111.069
1281838468136,111.192
1281838528135,111.040
1281838588135,110.964
1281838648135,111.132
1281838708135,111.005
1281838768135,111.008
1281838828135,111.074
1281838888135,111.104
1281838948135,111.179
1281839008135,110.994
1281839068135,111.121
1281839128135,111.011
1281839188135,111.119
1281839248135,111.004
1281839308135,110.844
1281839368135,111.414
1281839428135,111.207
1281839488135,111.301
1281839548135,111.384
1281839608135,111.250
1281839668136,110.911
1281839728136,111.114
1281839788136,111.169
1281839848135,111.341
1281839908135,111.047
1281839968135,111.199
1281840028135,111.071
1281840088135,111.000
1281840148135,111.330
1281840208135,110.931
1281840268135,110.980
1281840328135,111.192
1281840388135,111.115
1281840448135,111.106
1281840508135,110.886
1281840568135,111.135
1281840628135,111.153
1281840688135,111.200
1281840748135,111.080
1281840808135,111.114
1281840868135,111.350
1281840928135,111.340
1281840988136,111.233
1281841048136,111.360
1281841108136,111.046
1281841168136,111.121
1281841228145,111.211
1281841288145,111.021
1281841348145,111.219
1281841408145,111.054
1281841468145,111.276
1281841528145,111.048
1281841588145,111.131
1281841648145,111.116
1281841708145,111.086
1281841768145,111.247
1281841828145,110.773
1281841888145,111.172
1281841948145,111.289
1281842008145,110.971
1281842068145,110.980
1281842128145,111.201
1281842188145,110.949
1281842248145,111.164
1281842308145,111.086
1281842368145,111.001
1281842428145,111.107
1281842488145,111.127
1281842548145,111.128
1281842608145,111.109
1281842668145,111.067
1281842728145,111.104
1281842788145,110.956
1281842848145,110.759
1281842908145,110.849
1281842968145,111.030
1281843028145,110.677
1281843088145,110.898
1281843148145,110.846
1281843208145,110.870
1281843268145,110.863
1281843328145,110.862
1281843388145,110.483
1281843448145,110.642
1281843508145,110.995
1281843568145,111.032
1281843628145,110.754
1281843688145,110.803
1281843748145,110.724
1281843808145,110.975
1281843868145,111.031
1281843928145,110.683
1281843988145,110.828
1281844048145,110.918
1281844108145,110.912
1281844168145,110.990
1281844228145,110.862
1281844288145,110.857
1281844348145,111.139
1281844408145,111.009
1281844468145,111.105
1281844528145,110.968
1281844588145,110.934
1281844648145,110.667
1281844708145,110.717
1281844768145,110.952
1281844828154,110.756
1281844888154,110.807
1281844948154,110.923
1281845008154,110.979
1281845068154,110.933
1281845128154,110.934
1281845188154,110.790
1281845248154,110.626
1281845308154,110.773
1281845368154,110.682
1281845428154,110.766
1281845488154,110.680
1281845548154,110.561
1281845608154,110.629
1281845668154,110.758
1281845728154,110.820
1281845788154,110.599
1281845848154,110.783
1281845908154,110.685
1281845968154,110.724
1281846028154,110.775
1281846088154,110.894
1281846148154,110.927
1281846208154,110.490
1281846268154,110.781
1281846328154,110.632
1281846388154,110.758
1281846448154,110.794
1281846508154,110.693
1281846568154,110.708
1281846628154,110.774
1281846688154,110.806
1281846748154,110.852
1281846808154,110.777
1281846868154,111.033
1281846928154,110.599
1281846988154,110.622
1281847048154,110.901
1281847108154,110.687
1281847168154,110.688
1281847228154,110.882
1281847288154,110.634
1281847348154,110.764
1281847408154,110.465
1281847468154,110.595
1281847528154,110.588
1281847588154,110.824
1281847648154,110.581
1281847708154,110.595
1281847768154,110.382
1281847828154,110.546
1281847888154,110.676
1281847948154,110.791
1281848008154,110.700
1281848068154,110.658
1281848128154,110.644
1281848188154,110.837
1281848248154,110.660
1281848308154,110.493
1281848368154,110.839
1281848428162,110.580
1281848488162,110.666
1281848548162,110.485
1281848608162,110.722
1281848668162,110.597
1281848728162,110.536
1281848788162,110.523
1281848848162,110.651
1281848908162,110.534
1281848968162,110.570
1281849028162,110.661
1281849088162,110.594
1281849148162,110.787
1281849208162,110.697
1281849268162,110.387
1281849328162,110.866
1281849388162,110.571
1281849448162,110.622
1281849508162,110.555
1281849568162,110.377
1281849628162,110.543
1281849688162,110.554
1281849748162,110.336
1281849808162,110.632
1281849868162,110.639
1281849928162,110.660
1281849988162,110.854
1281850048162,110.528
1281850108162,110.654
1281850168162,110.452
1281850228162,110.503
1281850288162,110.707
1281850348162,110.606
1281850408162,110.634
1281850468162,110.651
1281850528162,110.296
1281850588162,110.515
1281850648162,110.618
1281850708162,110.543
1281850768162,110.781
1281850828162,110.687
1281850888162,110.782
1281850948162,110.626
1281851008162,110.632
1281851068162,110.563
1281851128162,110.439
1281851188162,110.437
1281851248162,110.272
1281851308162,110.483
1281851368162,110.298
1281851428162,110.297
1281851488162,110.403
1281851548162,110.134
1281851608162,110.107
1281851668162,109.985
1281851728162,109.985
1281851788162,110.244
1281851848162,110.051
1281851908162,110.236
1281851968162,110.084
1281852028171,109.904
1281852088171,109.989
1281852148171,110.048
1281852208171,110.017
1281852268171,110.150
1281852328171,110.138
1281852388171,110.039
1281852448171,110.091
1281852508171,110.100
1281852568171,109.591
1281852628171,109.910
1281852688171,109.929
1281852748171,109.967
1281852808171,109.717
1281852868171,109.986
1281852928171,109.822
1281852988171,109.815
1281853048171,109.647
1281853108171,109.728
1281853168171,109.579
1281853228171,109.622
1281853288171,109.798
1281853348171,109.374
1281853408171,109.747
1281853468171,109.557
1281853528171,109.629
1281853588171,109.538
1281853648171,109.558
1281853708171,109.389
1281853768171,109.836
1281853828171,109.596
1281853888171,109.574
1281853948171,109.400
1281854008171,109.204
1281854068171,109.312
1281854128171,109.454
1281854188171,109.373
1281854248171,109.183
1281854308171,109.248
1281854368171,109.387
1281854428171,109.372
1281854488171,109.104
1281854548171,109.147
1281854608171,109.456
1281854668171,109.335
1281854728171,109.308
1281854788171,109.124
1281854848171,109.005
1281854908171,109.173
1281854968171,109.089
1281855028171,109.050
1281855088171,109.149
1281855148171,109.153
1281855208171,108.934
1281855268171,108.925
1281855328171,108.994
1281855388171,108.983
1281855448171,108.895
1281855508171,109.387
1281855568171,109.090
1281855628180,109.235
1281855688180,108.976
1281855748180,109.226
1281855808180,109.187
1281855868180,109.090
1281855928180,109.189
1281855988180,108.965
1281856048180,109.108
1281856108180,109.312
1281856168180,109.243
1281856228180,109.469
1281856288180,109.171
1281856348180,109.069
1281856408180,109.275
1281856468180,109.192
1281856528180,109.401
1281856588180,109.147
1281856648180,109.188
1281856708180,109.067
1281856768180,109.281
1281856828180,109.357
1281856888180,109.024
1281856948180,109.470
1281857008180,109.287
1281857068180,109.297
1281857128180,109.265
1281857188180,109.601
1281857248180,109.464
1281857308180,109.391
1281857368180,109.405
1281857428180,109.210
1281857488180,109.516
1281857548180,109.357
1281857608180,109.344
1281857668180,109.522
1281857728180,109.541
1281857788180,109.507
1281857848180,109.515
1281857908180,109.509
1281857968180,109.709
1281858028180,109.367
1281858088180,109.527
1281858148180,109.461
1281858208180,109.376
1281858268180,109.538
1281858328180,109.552
1281858388180,109.615
1281858448180,109.549
1281858508180,109.847
1281858568180,109.465
1281858628180,109.326
1281858688180,109.278
1281858748180,109.360
1281858808180,109.394
1281858868180,109.630
1281858928180,109.543
1281858988180,109.288
1281859048180,109.376
1281859108180,109.277
1281859168180,109.391
1281859228189,109.281
1281859288189,109.318
1281859348189,109.224
1281859408189,109.118
1281859468189,109.062
1281859528189,109.084
1281859588189,109.120
1281859648189,108.915
1281859708189,109.066
1281859768189,108.990
1281859828189,108.976
1281859888189,109.024
1281859948189,108.894
1281860008189,108.914
1281860068189,108.782
1281860128189,108.855
1281860188189,108.629
1281860248189,108.612
1281860308189,108.767
1281860368189,108.868
1281860428189,108.510
1281860488189,108.903
1281860548189,108.496
1281860608189,108.645
1281860668189,108.568
1281860728189,108.501
1281860788189,108.567
1281860848189,108.369
1281860908189,108.676
1281860968189,108.287
1281861028189,108.250
1281861088189,108.435
1281861148189,108.203
1281861208189,108.304
1281861268189,108.221
1281861328189,108.580
1281861388189,108.417
1281861448189,108.298
1281861508189,108.047
1281861568189,108.112
1281861628189,108.162
1281861688189,108.121
1281861748189,108.041
1281861808189,107.811
1281861868189,107.927
1281861928189,108.087
1281861988189,107.861
1281862048189,108.103
1281862108189,108.194
1281862168189,107.852
1281862228189,107.778
1281862288189,107.813
1281862348189,107.795
1281862408189,107.899
1281862468189,107.763
1281862528189,108.010
1281862588189,107.746
1281862648189,107.832
1281862708189,108.018
1281862768189,107.871
1281862828198,107.839
1281862888198,107.624
1281862948198,107.696
1281863008198,107.651
1281863068198,107.541
1281863128198,108.078
1281863188198,107.659
1281863248198,107.776
1281863308198,107.923
1281863368198,107.699
1281863428198,107.449
1281863488198,107.465
1281863548198,107.579
1281863608198,107.522
1281863668198,107.370
1281863728198,107.645
1281863788198,107.560
1281863848198,107.435
1281863908198,107.451
1281863968198,107.478
1281864028198,107.454
1281864088198,107.432
1281864148198,107.617
1281864208198,107.233
1281864268198,107.697
1281864328198,107.811
1281864388198,107.718
1281864448198,107.527
1281864508198,107.602
1281864568198,107.663
1281864628198,107.449
1281864688198,107.583
1281864748198,107.705
1281864808198,107.505
1281864868198,107.668
1281864928198,107.732
1281864988198,107.626
1281865048198,107.653
1281865108198,107.849
1281865168198,107.785
1281865228198,107.537
1281865288198,107.566
1281865348198,107.688
1281865408198,107.746
1281865468198,108.149
1281865528198,107.850
1281865588198,107.821
1281865648198,107.930
1281865708198,107.661
1281865768198,107.921
1281865828198,107.783
1281865888198,108.023
1281865948198,107.806
1281866008198,107.708
1281866068198,108.021
1281866128198,107.900
1281866188198,107.722
1281866248198,107.767
1281866308198,107.946
1281866368198,107.729
1281866428207,107.717
1281866488207,108.014
1281866548207,107.872
1281866608207,107.856
1281866668207,107.872
1281866728207,107.760
1281866788207,107.702
1281866848207,107.958
1281866908207,107.867
1281866968207,107.835
1281867028207,107.766
1281867088207,107.709
1281867148207,107.658
1281867208207,107.592
1281867268207,107.707
1281867328207,107.823
1281867388207,107.640
1281867448207,107.732
1281867508207,107.771
1281867568207,107.741
1281867628207,107.709
1281867688207,107.718
1281867748207,107.971
1281867808207,107.599
1281867868207,107.642
1281867928207,107.732
1281867988207,107.563
1281868048207,107.872
1281868108207,107.597
1281868168207,107.329
1281868228207,107.772
1281868288207,107.429
1281868348207,107.607
1281868408207,107.342
1281868468207,107.512
1281868528207,107.475
1281868588207,107.780
1281868648207,107.946
1281868708207,107.626
1281868768207,107.647
1281868828207,107.568
1281868888207,107.922
1281868948207,107.718
1281869008207,107.548
1281869068207,107.692
1281869128207,107.539
1281869188207,107.943
1281869248207,107.691
1281869308207,107.748
1281869368207,107.702
1281869428207,107.691
1281869488207,107.914
1281869548207,107.471
1281869608207,107.804
1281869668207,107.693
1281869728207,107.668
1281869788207,107.778
1281869848207,107.611
1281869908207,107.801
1281869968207,107.741
1281870028216,107.715
1281870088216,107.723
1281870148216,107.615
1281870208216,107.509
1281870268216,107.651
1281870328216,107.735
1281870388216,107.774
1281870448216,107.706
1281870508216,107.544
1281870568216,107.547
1281870628216,107.743
1281870688216,107.560
1281870748216,107.649
1281870808216,107.717
1281870868216,107.491
1281870928216,107.639
1281870988216,107.350
1281871048216,107.475
1281871108216,107.674
1281871168216,107.445
1281871228216,107.411
1281871288216,107.385
1281871348216,107.690
1281871408216,107.360
1281871468216,107.572
1281871528216,107.440
1281871588216,107.432
1281871648216,107.469
1281871708216,107.558
1281871768216,107.688
1281871828216,107.479
1281871888216,107.397
1281871948216,107.550
1281872008216,107.655
1281872068216,107.692
1281872128216,107.372
1281872188216,107.479
1281872248216,107.634
1281872308216,107.748
1281872368216,107.637
1281872428216,107.959
1281872488216,107.719
1281872548216,107.640
1281872608216,107.811
1281872668216,107.844
1281872728216,107.725
1281872788216,107.556
1281872848216,107.603
1281872908216,107.519
1281872968216,107.660
1281873028216,107.848
1281873088216,107.983
1281873148216,107.516
1281873208216,107.637
1281873268216,107.832
1281873328216,107.648
1281873388216,107.893
1281873448216,107.996
1281873508216,107.703
1281873568216,108.058
1281873628225,107.901
1281873688225,108.068
1281873748225,107.671
1281873808225,108.172
1281873868225,107.832
1281873928225,108.051
1281873988225,108.096
1281874048225,108.130
1281874108225,108.052
1281874168225,108.054
1281874228225,108.101
1281874288225,108.301
1281874348225,108.456
1281874408225,108.375
1281874468225,108.464
1281874528225,108.163
1281874588225,108.299
1281874648225,108.186
1281874708225,108.237
1281874768225,108.261
1281874828225,108.496
1281874888225,108.258
1281874948225,108.405
1281875008225,108.142
1281875068225,107.992
1281875128225,108.375
1281875188225,108.218
1281875248225,108.698
1281875308225,108.364
1281875368225,108.288
1281876628225,108.487
1281876688225,108.531
1281876748225,108.305
1281876808225,108.637
1281876868225,108.681
1281876928225,108.706
1281876988225,108.665
1281877048225,108.467
1281877108225,108.766
1281877168225,108.349
1281877228234,108.524
1281877288234,108.572
1281877348234,108.602
1281877408234,108.697
1281877468234,108.681
1281877528234,108.411
1281877588234,108.763
1281877648234,108.588
1281877708234,108.578
1281877768234,108.647
1281877828234,108.757
1281877888234,108.934
1281877948234,108.600
1281878008234,108.860
1281878068234,108.687
1281878128234,108.566
1281878188234,108.753
1281878248234,108.621
1281878308234,108.600
1281878368234,108.767
1281878428234,108.808
1281878488234,108.574
1281878548234,108.844
1281878608234,108.941
1281878668234,108.881
1281878728234,108.713
1281878788234,108.776
1281878848234,108.884
1281878908234,108.702
1281878968234,108.920
1281879028234,108.669
1281879088234,108.800
1281879148234,108.763
1281879208234,108.789
1281879268234,108.673
1281879328234,108.579
1281879388234,108.647
1281879448234,108.800
1281879508234,108.513
1281879568234,108.557
1281879628234,108.802
1281879688234,108.711
1281879748234,108.563
1281879808234,108.746
1281879868234,108.412
1281879928234,108.268
1281879988234,108.326
1281880048234,108.469
1281880108234,108.437
1281880168234,108.391
1281880228234,108.400
1281880288234,108.100
1281880348234,108.275
1281880408234,108.378
1281880468234,108.575
1281880528234,108.265
1281880588234,108.030
1281880648234,108.315
1281880708234,108.217
1281880768234,108.314
1281880828243,108.210
1281880888243,108.080
1281880948244,108.405
1281881008244,108.311
1281881068244,108.320
1281881128244,108.284
1281881188244,108.323
1281881248244,108.276
1281881308244,108.201
1281881368244,108.361
1281881428244,108.470
1281881488243,108.218
1281881548243,108.337
1281881608243,108.190
1281881668243,108.173
1281881728243,108.103
1281881788243,108.352
1281881848243,108.404
1281881908243,108.468
1281881968244,108.450
1281882028244,108.333
1281882088244,108.279
1281882148243,108.109
1281882208243,108.263
1281882268244,108.107
1281882328244,108.064
1281882388244,108.011
1281882448244,108.147
1281882508244,108.170
1281882568244,108.389
1281882628244,108.393
1281882688244,108.273
1281882748244,108.440
1281882808243,108.637
1281882868243,108.577
1281882928243,108.434
1281882988243,108.365
1281883048243,108.427
1281883108243,108.303
1281883168243,108.446
1281883228243,108.296
1281883288244,108.114
1281883348244,108.166
1281883408244,108.272
1281883468243,108.232
1281883528243,108.358
1281883588243,108.100
1281883648244,108.265
1281883708244,108.396
1281883768244,108.407
1281883828244,108.140
1281883888244,108.198
1281883948244,108.328
1281884008244,108.389
1281884068244,108.236
1281884128244,108.173
1281884188243,108.356
1281884248243,108.356
1281884308243,108.281
1281884368243,108.333
1281884428253,108.268
1281884488253,108.088
1281884548253,108.321
1281884608253,108.426
1281884668253,108.185
1281884728253,107.969
1281884788253,108.115
1281884848253,108.298
1281884908253,108.328
1281884968253,108.210
1281885028253,108.189
1281885088253,108.259
1281885148253,108.318
1281885208253,108.125
1281885268253,108.199
1281885328253,108.288
1281885388253,108.012
1281885448253,108.416
1281885508253,108.239
1281885568253,108.324
1281885628253,108.272
1281885688253,108.485
1281885748253,108.409
1281885808253,108.330
1281885868253,108.433
1281885928253,108.286
1281885988253,108.562
1281886048253,108.308
1281886108253,108.312
1281886168253,108.377
1281886228253,108.363
1281886288253,108.254
1281886348253,108.337
1281886408253,108.447
1281886468253,108.448
1281886528253,108.417
1281886588253,108.252
1281886648253,108.369
1281886708253,108.246
1281886768253,108.131
1281886828253,108.150
1281886888253,108.253
1281886948253,108.152
1281887008253,108.207
1281887068253,108.263
1281887128253,108.120
1281887188253,108.255
1281887248253,108.088
1281887308253,108.125
1281887368253,108.285
1281887428253,108.271
1281887488253,108.230
1281887548253,108.174
1281887608253,108.018
1281887668253,108.210
1281887728253,108.335
1281887788253,108.032
1281887848253,108.229
1281887908253,108.165
1281887968253,107.990
1281888028263,108.110
1281888088263,108.085
1281888148263,108.004
1281888208263,108.048
1281888268263,108.139
1281888328263,108.128
1281888388263,108.004
1281888448263,108.144
1281888508263,107.973
1281888568263,108.109
1281888628263,108.211
1281888688263,108.229
1281888748263,108.197
1281888808263,108.285
1281888868263,108.133
1281888928263,108.153
1281888988263,108.205
1281889048263,108.007
1281889108263,108.224
1281889168263,108.184
1281889228263,108.247
1281889288263,108.290
1281889348263,108.323
1281889408263,108.217
1281889468263,108.057
1281889528263,108.192
1281889588263,108.302
1281889648263,108.238
1281889708263,108.108
1281889768263,108.310
1281889828263,108.232
1281889888263,108.268
1281889948263,108.298
1281890008263,108.248
1281890068263,108.271
1281890128263,108.308
1281890188263,108.325
1281890248263,108.492
1281890308263,108.401
1281890368263,108.656
1281890428263,108.371
1281890488263,108.653
1281890548263,108.807
1281890608263,108.549
1281890668263,108.596
1281890728263,108.531
1281890788263,108.509
1281890848263,108.424
1281890908263,108.686
1281890968263,108.564
1281891028263,108.228
1281891088263,108.532
1281891148263,108.625
1281891208263,108.474
1281891268263,108.233
1281891328263,108.359
1281891388263,108.636
1281891448263,108.202
1281891508263,108.469
1281891568263,108.181
1281891628274,108.398
1281891688274,108.682
1281891748274,108.315
1281891808274,108.395
1281891868274,108.379
1281891928274,108.442
1281891988274,108.386
1281892048274,108.385
1281892108274,108.656
1281892168274,108.370
1281892228274,108.406
1281892288274,108.466
1281892348274,108.380
1281892408274,108.554
1281892468274,108.307
1281892528274,108.361
1281892588274,108.506
1281892648274,108.307
1281892708274,108.367
1281892768274,108.334
1281892828274,108.447
1281892888274,108.479
1281892948274,108.365
1281893008274,108.237
1281893068274,108.400
1281893128274,108.094
1281893188274,108.186
1281893248274,108.190
1281893308274,108.415
1281893368274,108.324
1281893428274,108.235
1281893488274,108.065
1281893548274,108.072
1281893608274,108.240
1281893668274,108.376
1281893728274,108.284
1281893788274,108.354
1281893848274,108.114
1281893908274,108.327
1281893968274,108.152
1281894028274,108.161
1281894088274,108.185
1281894148274,108.033
1281894208274,108.089
1281894268274,107.934
1281894328274,108.045
1281894388274,108.075
1281894448274,107.976
1281894508274,108.017
1281894568274,107.833
1281894628274,107.983
1281894688274,108.223
1281894748274,107.931
1281894808274,107.949
1281894868274,108.012
1281894928274,107.970
1281894988274,107.644
1281895048274,107.840
1281895108274,107.848
1281895168274,107.921
1281895228284,107.589
1281895288284,107.982
1281895348285,107.816
1281895408285,107.778
1281895468285,107.620
1281895528285,107.860
1281895588284,107.749
1281895648284,107.773
1281895708284,107.575
1281895768284,107.609
1281895828284,107.638
1281895888284,107.707
1281895948284,107.854
1281896008284,107.710
1281896068284,107.931
1281896128284,107.779
1281896188284,107.731
1281896248284,108.066
1281896308284,107.733
1281896368284,107.854
1281896428284,107.736
1281896488284,107.732
1281896548284,107.541
1281896608284,107.847
1281896668284,107.654
1281896728285,107.938
1281896788285,108.011
1281896848285,108.315
1281896908285,108.389
1281896968284,108.568